Lake Wedowee Weather Center

Moon Phase Calendar



Lake Wedowee Water Level
Online Cameras

 


      

Current Conditions in Wedowee
3/1/2024 6:35:10 PM

43°F
Feels Like 39
Clouds
Humidity
1%
Pressure
30.21"
Wind
7.6 mph (ESE)
Dew Point
-45°F
UV Index
0/10 (Low)
Visibility
0 mi

Hourly Forecast

Date & Time Fri, Mar 1
6:00 PM
Fri, Mar 1
7:00 PM
Fri, Mar 1
8:00 PM
Fri, Mar 1
9:00 PM
Fri, Mar 1
10:00 PM
Fri, Mar 1
11:00 PM
Sat, Mar 2
12:00 AM
Sat, Mar 2
1:00 AM
Sat, Mar 2
2:00 AM
Sat, Mar 2
3:00 AM
Sat, Mar 2
4:00 AM
Sat, Mar 2
5:00 AM
Sat, Mar 2
6:00 AM
Sat, Mar 2
7:00 AM
Sat, Mar 2
8:00 AM
Sat, Mar 2
9:00 AM
Sat, Mar 2
10:00 AM
Sat, Mar 2
11:00 AM
Sat, Mar 2
12:00 PM
Sat, Mar 2
1:00 PM
Sat, Mar 2
2:00 PM
Sat, Mar 2
3:00 PM
Sat, Mar 2
4:00 PM
Sat, Mar 2
5:00 PM
Sat, Mar 2
6:00 PM
Sat, Mar 2
7:00 PM
Sat, Mar 2
8:00 PM
Sat, Mar 2
9:00 PM
Sat, Mar 2
10:00 PM
Sat, Mar 2
11:00 PM
Sun, Mar 3
12:00 AM
Sun, Mar 3
1:00 AM
Sun, Mar 3
2:00 AM
Sun, Mar 3
3:00 AM
Sun, Mar 3
4:00 AM
Sun, Mar 3
5:00 AM
Sun, Mar 3
6:00 AM
Sun, Mar 3
7:00 AM
Sun, Mar 3
8:00 AM
Sun, Mar 3
9:00 AM
Sun, Mar 3
10:00 AM
Sun, Mar 3
11:00 AM
Sun, Mar 3
12:00 PM
Sun, Mar 3
1:00 PM
Sun, Mar 3
2:00 PM
Sun, Mar 3
3:00 PM
Sun, Mar 3
4:00 PM
Sun, Mar 3
5:00 PM
Condition
Rain

Clouds

Clouds

Rain

Rain

Rain

Clouds

Rain

Clouds

Clouds

Rain

Rain

Clouds

Clouds

Clouds

Clouds

Clouds

Clouds

Clouds

Clouds

Clouds

Clouds

Clouds

Clouds

Clouds

Clouds

Clouds

Clouds

Clouds

Clouds

Clouds

Clouds

Clouds

Clouds

Clouds

Clouds

Clouds

Clouds

Clouds

Clouds

Clouds

Clouds

Clouds

Clouds

Clouds

Clouds

Clouds

Clouds
Temperature 43°F43°F44°F45°F46°F47°F48°F48°F48°F49°F49°F49°F49°F50°F51°F54°F56°F59°F60°F61°F60°F60°F61°F60°F57°F56°F56°F56°F56°F56°F56°F55°F54°F53°F54°F54°F54°F55°F60°F63°F67°F70°F71°F71°F68°F67°F66°F64°F
Feels Like 39°F39°F40°F41°F43°F45°F46°F47°F47°F48°F48°F48°F49°F49°F51°F53°F56°F58°F60°F60°F60°F60°F61°F60°F56°F56°F56°F56°F56°F56°F55°F55°F54°F53°F53°F54°F53°F55°F59°F63°F67°F69°F71°F71°F68°F67°F66°F64°F
Cloudiness 100%100%100%100%100%100%100%100%100%100%100%100%100%100%100%100%100%99%99%98%99%99%96%90%86%83%91%94%94%93%93%82%68%57%60%64%63%50%43%55%56%62%69%97%99%99%99%100%
Visibility 1 mi0 mi0 mi0 mi0 mi0 mi0 mi0 mi0 mi0 mi0 mi0 mi0 mi0 mi0 mi0 mi6 mi6 mi6 mi6 mi6 mi6 mi6 mi6 mi6 mi6 mi6 mi6 mi6 mi6 mi6 mi6 mi6 mi6 mi6 mi6 mi6 mi6 mi6 mi6 mi6 mi6 mi6 mi6 mi6 mi6 mi6 mi6 mi
Precipitation 100%20%19%38%48%74%77%31%29%34%62%71%62%0%0%0%0%0%0%0%0%0%0%0%0%0%0%0%0%0%0%0%0%0%0%0%0%0%0%0%0%0%0%0%0%0%0%0%
Humidity 21%1%21%41%60%80%99%99%99%99%99%99%99%99%98%96%93%87%85%84%85%86%84%89%93%96%97%96%93%92%92%95%97%97%97%96%97%96%88%81%71%64%59%59%70%75%78%80%
Dew Point 9°F-45°F9°F23°F33°F41°F47°F48°F48°F48°F48°F48°F49°F49°F50°F52°F54°F55°F55°F55°F55°F56°F56°F56°F54°F54°F55°F54°F54°F53°F53°F53°F53°F52°F52°F53°F52°F54°F56°F57°F57°F57°F56°F56°F58°F58°F58°F58°F
Pressure 30.21"30.21"30.21"30.21"30.18"30.18"30.15"30.15"30.15"30.12"30.15"30.15"30.15"30.18"30.18"30.18"30.18"30.18"30.18"30.15"30.12"30.12"30.12"30.12"30.12"30.15"30.15"30.15"30.15"30.15"30.15"30.15"30.12"30.12"30.12"30.15"30.15"30.18"30.18"30.18"30.15"30.15"30.12"30.09"30.09"30.09"30.09"30.09"
Wind Speed 7.1 mph7.6 mph7 mph6.9 mph5.6 mph5.2 mph4.9 mph3.3 mph3.9 mph3.3 mph3.2 mph3.6 mph2.6 mph3 mph3.2 mph3.6 mph3.8 mph4 mph4.5 mph4.4 mph4 mph2.7 mph1.8 mph2.6 mph2.8 mph2.9 mph2.6 mph2.2 mph1.4 mph1.8 mph2.8 mph3.6 mph3 mph2 mph2.4 mph2.8 mph2.9 mph3 mph5.2 mph6.4 mph6.5 mph6.3 mph5.7 mph5.1 mph4.2 mph4.2 mph4.1 mph3.6 mph
Wind
Direction
91°
E
103°
ESE
108°
ESE
112°
ESE
125°
SE
114°
ESE
103°
ESE
109°
ESE
87°
E
76°
ENE
95°
E
71°
ENE
65°
ENE
45°
NE
61°
ENE
76°
ENE
97°
E
122°
ESE
140°
SE
145°
SE
143°
SE
136°
SE
131°
SE
139°
SE
153°
SSE
135°
SE
121°
ESE
112°
ESE
112°
ESE
108°
ESE
110°
ESE
110°
ESE
120°
ESE
129°
SE
124°
SE
118°
ESE
107°
ESE
102°
ESE
111°
ESE
117°
ESE
125°
SE
137°
SE
145°
SE
157°
SSE
139°
SE
133°
SE
126°
SE
124°
SE

Daily Forecast

Date High Low Precip. Humidity
Today
Mar 1

Rain
47 °F
41 °F
100%
94%
Saturday
Mar 2

Rain
61 °F
48 °F
77%
87%
Sunday
Mar 3

Clouds
71 °F
53 °F
0%
64%
Monday
Mar 4

Rain
70 °F
60 °F
31%
82%
Tuesday
Mar 5

Rain
64 °F
59 °F
100%
78%
Wednesday
Mar 6

Rain
71 °F
58 °F
100%
77%
Thursday
Mar 7

Rain
75 °F
54 °F
100%
64%
Friday
Mar 8

Rain
64 °F
58 °F
100%
97%
Saturday
Mar 9

Rain
57 °F
48 °F
100%
77%
Sunday
Mar 10

Clouds
57 °F
41 °F
0%
42%
Monday
Mar 11

Clouds
58 °F
39 °F
0%
46%
Tuesday
Mar 12

Clouds
65 °F
44 °F
0%
39%
Wednesday
Mar 13

Clear
68 °F
44 °F
0%
42%
Thursday
Mar 14

Clouds
67 °F
49 °F
0%
57%
Friday
Mar 15

Rain
63 °F
56 °F
100%
97%
Saturday
Mar 16

Rain
63 °F
47 °F
100%
92%

Temperature 8-14 Day Outlook



Precipitation 8-14 Day Outlook




Quick Links
Lake Wedowee News
Lake Wedowee Photos
Lake Wedowee Videos




About Us
Contact Us
Site Map
Search Site
Advertise With Us
   
www.LakeWedowee.info
THE LAKE WEDOWEE WEBSITE

Copyright 2024, Lakes Online
Privacy    |    Legal